| time (UTC) | temp C | wind direction | speed KPH | gust KPH | rain 1hr cm | rain 24hr cm | rain mn cm | humidity % | barometer mb |
| 20260504043823 | 5 | 0.0 | 0.0 | 0.00 | 0.00 | 0.00 | 31 | 1011.9 | |
| 20260504040822 | 5 | 0.0 | 0.0 | 0.00 | 0.00 | 0.00 | 30 | 1011.6 | |
| 20260504033822 | 6 | 0.0 | 0.0 | 0.00 | 0.00 | 0.00 | 30 | 1011.3 | |
| 20260504030822 | 6 | 0.0 | 0.0 | 0.00 | 0.00 | 0.00 | 30 | 1011.1 | |
| 20260504024422 | 7 | 0.0 | 0.0 | 0.00 | 0.00 | 0.00 | 30 | 1011.1 | |
| 20260504022023 | 7 | 0.0 | 0.0 | 0.00 | 0.00 | 0.00 | 30 | 1011.0 | |
| 20260504015621 | 8 | 0.0 | 0.0 | 0.00 | 0.00 | 0.00 | 30 | 1011.0 | |
| 20260504013220 | 8 | 0.0 | 0.0 | 0.00 | 0.00 | 0.00 | 29 | 1010.9 | |
| 20260504010820 | 10 | 0.0 | 0.0 | 0.00 | 0.00 | 0.00 | 29 | 1010.6 | |
| 20260504003820 | 11 | 0.0 | 0.0 | 0.00 | 0.00 | 0.00 | 29 | 1010.3 | |
| 20260504000819 | 13 | 0.0 | 0.0 | 0.00 | 0.00 | 0.00 | 29 | 1009.9 | |
| 20260503233819 | 15 | 0.0 | 0.0 | 0.00 | 0.00 | 0.00 | 28 | 1009.3 | |
| 20260503231419 | 17 | 0.0 | 0.0 | 0.00 | 0.00 | 0.00 | 28 | 1009.1 | |
| 20260503225319 | 17 | 0.0 | 0.0 | 0.00 | 0.00 | 0.00 | 28 | 1008.9 | |
| 20260503222919 | 18 | 0.0 | 0.0 | 0.00 | 0.00 | 0.00 | 28 | 1008.3 | |
| 20260503220818 | 18 | 0.0 | 0.0 | 0.00 | 0.00 | 0.00 | 27 | 1008.9 | |
| 20260503214718 | 18 | 0.0 | 0.0 | 0.00 | 0.00 | 0.00 | 27 | 1009.0 | |
| 20260503212618 | 20 | 0.0 | 0.0 | 0.00 | 0.00 | 0.00 | 26 | 1009.4 | |
| 20260503210521 | 22 | 0.0 | 0.0 | 0.00 | 0.00 | 0.00 | 25 | 1013.9 | |
| 20260503204123 | 19 | 0.0 | 0.0 | 0.00 | 0.00 | 0.00 | 26 | 1014.9 | |
| 20260503202023 | 18 | 0.0 | 0.0 | 0.00 | 0.00 | 0.00 | 24 | 1012.6 | |
| 20260503195623 | 18 | 0.0 | 0.0 | 0.00 | 0.00 | 0.00 | 24 | 1012.8 | |
| 20260503193222 | 18 | 0.0 | 0.0 | 0.00 | 0.00 | 0.00 | 25 | 1013.1 | |
| 20260503190838 | 19 | 0.0 | 0.0 | 0.00 | 0.00 | 0.00 | 22 | 1013.2 | |
| 20260503190822 | 19 | 0.0 | 0.0 | 0.00 | 0.00 | 0.00 | 22 | 1013.2 | |
| 20260503184438 | 22 | 0.0 | 0.0 | 0.00 | 0.00 | 0.00 | 20 | 1013.6 | |
| 20260503184421 | 22 | 0.0 | 0.0 | 0.00 | 0.00 | 0.00 | 20 | 1013.6 | |
| 20260503182021 | 20 | 0.0 | 0.0 | 0.00 | 0.00 | 0.00 | 20 | 1013.7 | |
| 20260503175621 | 24 | 0.0 | 0.0 | 0.00 | 0.00 | 0.00 | 18 | 1013.8 | |
| 20260503173220 | 27 | 0.0 | 0.0 | 0.00 | 0.00 | 0.00 | 17 | 1014.0 | |
| 20260503170820 | 26 | 0.0 | 0.0 | 0.00 | 0.00 | 0.00 | 16 | 1014.3 | |
| 20260503150819 | 27 | 0.0 | 0.0 | 0.00 | 0.00 | 0.00 | 16 | 1015.0 | |
| 20260503131123 | 28 | 0.0 | 0.0 | 0.00 | 0.00 | 0.00 | 18 | 1015.1 | |
| 20260503081102 | 31 | 0.0 | 0.0 | 0.00 | 0.00 | 0.00 | 28 | 1012.1 | |
| 20260503080732 | 31 | 0.0 | 0.0 | 0.00 | 0.00 | 0.00 | 28 | 1011.9 | |
| 20260503072301 | 31 | 0.0 | 0.0 | 0.00 | 0.00 | 0.00 | 27 | 1011.6 | |
| 20260503071931 | 31 | 0.0 | 0.0 | 0.00 | 0.00 | 0.00 | 27 | 1011.5 | |
| 20260503053155 | 32 | 0.0 | 0.0 | 0.00 | 0.00 | 0.00 | 27 | 1011.7 |